Tracking 19250 objects as of 23-Sep-2018
HD Live streaming from Space Station
objects crossing your sky now

FENGYUN 1C DEB

Track FENGYUN 1C DEB now!
10-day predictions


NORAD ID: 35185
Int'l Code: 1999-025DNR
Perigee: 561.3 km
Apogee: 730.6 km
Inclination: 99.5 °
Period: 97.5 minutes
Semi major axis: 7016 km
RCS: 0.0085 m2 (small)
Launch date: May 10, 1999
Source: People's Republic of China (PRC)
Launch site: Taiyaun Space Center, China (TSC)

Note: This is SATELLITE DEBRIS
aabbcc
Your satellite tracking list
Your tracking list is empty




NASA's NSSDC Master Catalog

Two Line Element Set (TLE):
1 35185U 99025DNR 18262.34345055 +.00001137 +00000-0 +15308-3 0  9997
2 35185 099.5454 223.9732 0120657 142.7088 218.2571 14.76995230566378
Source of the keplerian elements: AFSPC